Vorticity
nan nan nan nan nan nan nan nan nan nan nan nan nan nan nan nan nan nan nan nan nan nan nan nan nan nan nan nan nan nan nan nan nan nan nan nan nan nan nan nan nan nan nan nan
nan 7 9 9 9 8 5 6 6 9 11 9 11 8 6 17 17 11 14 16 9 7 7 4 13 20 18 9 6 7 8 6 4 6 7 7 6 8 10 10 9 7 9 nan
nan 2 5 17 15 13 9 8 7 4 8 14 16 19 19 18 15 13 9 9 9 10 5 7 16 30 13 6 8 8 8 6 6 6 4 6 6 8 9 10 9 10 8 nan
nan 7 5 12 10 14 14 17 9 8 9 15 6 17 29 23 10 10 9 7 7 9 5 7 16 39 6 6 7 10 8 6 7 6 8 7 6 7 6 7 8 9 9 nan
nan 8 13 13 11 11 11 12 19 17 8 11 6 11 22 25 13 7 6 4 9 8 7 7 13 24 8 7 8 8 7 7 8 6 7 6 7 7 9 11 8 6 8 nan
nan 5 13 10 12 9 9 13 19 15 16 13 17 13 12 14 17 8 9 10 9 7 11 16 25 4 6 8 9 9 8 7 7 8 9 8 6 6 8 8 6 7 7 nan
nan 20 19 12 9 6 4 6 15 14 11 7 16 9 12 10 15 15 12 15 11 12 13 15 20 8 9 9 5 8 9 8 7 8 8 7 8 7 6 5 7 7 6 nan
nan 15 15 5 6 4 11 9 4 7 6 8 10 11 7 11 10 12 23 21 13 13 13 11 11 10 8 8 8 8 7 9 7 6 7 8 5 5 9 6 7 8 9 nan
nan 1 -4 11 17 9 10 13 10 12 9 10 7 9 9 7 -0 18 31 15 17 12 10 9 12 6 8 10 10 10 7 7 8 6 7 8 8 8 10 9 5 8 9 nan
nan 12 10 10 15 12 4 3 14 9 9 10 10 9 2 2 11 20 25 17 14 13 11 7 10 9 12 11 10 11 9 8 9 7 5 8 9 7 9 11 10 8 9 nan
nan 9 4 10 5 8 12 8 6 8 10 7 10 6 6 10 13 18 12 12 9 13 12 12 11 12 10 9 9 9 10 10 9 8 7 8 9 9 7 7 8 11 12 nan
nan 10 11 11 11 11 10 10 11 7 8 12 9 3 9 13 12 15 16 11 11 13 10 9 6 8 12 12 9 9 10 9 10 10 9 8 9 10 9 10 7 9 10 nan
nan 8 5 13 15 8 2 -1 8 15 12 9 6 8 5 7 12 10 16 18 14 8 6 9 8 7 5 8 12 12 8 9 9 10 9 6 8 11 11 10 9 6 6 nan
nan 10 7 3 -6 -2 3 3 4 10 7 8 6 5 5 8 8 10 13 16 16 13 10 4 7 9 7 8 8 9 14 11 9 9 8 8 7 6 8 9 10 9 8 nan
nan 8 10 5 4 6 8 9 10 8 3 2 2 -0 7 10 10 10 7 10 14 13 13 12 10 9 10 8 9 7 10 12 13 10 8 8 9 8 8 9 8 8 10 nan
nan 9 12 10 14 16 13 17 17 13 10 6 3 7 8 11 12 7 10 11 9 12 15 15 13 13 12 11 11 10 10 13 13 14 11 10 10 11 10 9 9 9 9 nan
nan 8 9 12 13 15 22 21 19 19 24 21 14 15 13 11 9 10 10 9 10 9 10 9 12 11 13 15 14 16 13 11 13 13 11 11 11 11 10 10 10 10 10 nan
nan 8 7 11 15 12 4 11 16 9 11 17 19 16 19 15 7 6 7 8 8 9 8 8 8 7 7 11 13 16 17 16 12 11 12 12 13 11 10 10 11 11 12 nan
nan 8 9 13 6 3 14 12 10 13 1 3 12 13 15 16 6 -2 8 10 10 9 9 9 9 11 11 9 11 14 13 16 16 13 12 12 12 12 12 11 10 11 11 nan
nan 13 9 10 10 8 13 5 8 14 3 0 8 9 11 20 16 4 7 11 10 11 10 10 11 11 10 8 12 14 12 13 10 11 11 11 15 18 14 12 9 11 15 nan
nan 12 11 9 9 5 5 13 17 10 6 6 5 7 12 15 11 9 9 10 11 9 10 13 14 11 8 10 13 13 12 9 10 12 12 11 12 12 12 14 13 13 13 nan
nan 10 11 11 11 6 9 19 16 12 10 9 7 9 9 8 11 11 10 10 10 10 11 12 10 9 10 14 14 12 9 9 13 12 11 11 12 13 13 11 11 12 11 nan
nan 11 10 12 9 10 14 10 6 10 9 10 12 13 14 12 9 10 10 10 10 10 11 10 12 10 8 11 15 13 9 12 12 12 11 11 12 12 14 13 11 10 9 nan
nan 12 7 7 12 8 12 9 4 9 11 10 12 13 14 12 10 10 10 11 10 10 10 10 10 11 11 12 13 11 12 12 13 11 10 11 11 10 11 12 12 13 12 nan
nan 11 12 8 9 10 2 2 6 11 10 9 11 10 11 13 10 9 10 11 11 10 11 12 11 10 10 11 11 10 12 12 11 10 10 10 10 10 10 11 13 15 16 nan
nan nan nan nan nan nan nan nan nan nan nan nan nan nan nan nan nan nan nan nan nan nan nan nan nan nan nan nan nan nan nan nan nan nan nan nan nan nan nan nan nan nan nan nan
CAPE
8 12 1 0 3 2 2 3 0 0 0 29 9 0 0 0 7 0 0 0 0 0 0 0 8 41 823 799 734 597 498 442 233 27 0 2 3 5 2 0 1 0 0 0
5 1 0 0 3 2 18 24 3 0 0 3 5 9 0 0 23 0 62 117 5 20 0 0 0 185 844 681 522 476 433 215 70 38 1 23 9 0 0 0 3 0 0 0
0 0 0 0 0 4 5 5 1 1 0 0 4 1 0 0 0 4 73 116 1 0 0 0 0 74 572 532 463 363 261 113 36 5 8 18 1 0 0 0 0 0 0 0
0 0 0 1 0 0 1 0 3 6 1 0 7 0 0 0 0 90 106 27 4 0 0 0 0 165 602 308 309 322 191 81 73 22 13 1 0 0 0 0 0 0 0 0
0 0 0 0 0 0 0 4 6 14 19 2 0 4 16 0 1 48 0 0 0 0 0 0 9 249 427 418 294 256 185 134 77 66 36 8 10 0 0 0 0 0 0 0
0 0 0 0 0 0 0 5 8 8 11 1 0 9 8 27 0 0 0 0 0 0 0 0 68 321 349 431 342 281 220 133 171 174 61 25 2 0 0 0 1 1 0 0
0 0 0 0 0 0 3 8 1 4 3 1 0 0 0 0 3 0 0 0 0 0 0 11 234 403 452 410 349 310 262 189 173 175 107 28 0 0 0 0 0 1 0 0
1 0 0 0 0 1 0 12 15 12 0 0 0 0 0 0 93 59 0 0 0 0 14 5 401 390 350 373 349 305 236 185 126 235 170 73 2 0 0 0 0 0 0 0
4 4 0 0 0 0 0 3 0 2 0 0 0 0 0 6 0 57 26 0 0 32 16 28 170 250 352 313 286 261 264 215 109 193 187 152 37 2 1 2 0 0 0 0
5 5 0 0 0 0 0 0 0 3 8 0 0 0 0 0 0 83 188 42 192 154 53 24 226 146 374 296 301 284 254 195 175 129 152 293 185 69 29 11 0 0 0 0
4 10 0 0 0 5 11 0 2 1 0 4 0 0 0 0 0 1 35 168 209 167 272 309 335 241 359 350 345 290 233 191 120 99 120 232 292 115 54 0 9 10 0 0
4 31 1 0 0 0 0 0 0 18 5 0 0 0 0 0 0 0 5 14 121 151 278 173 45 32 150 293 265 233 215 183 163 136 149 225 347 185 114 51 31 0 0 0
5 8 1 0 0 0 0 0 0 1 2 0 0 0 0 0 0 0 0 12 126 72 5 0 0 0 0 0 174 326 277 232 203 214 166 142 101 85 119 45 13 0 0 0
8 11 2 5 0 0 0 0 0 0 1 0 0 0 0 0 0 0 0 0 0 4 1 0 0 0 0 0 0 68 275 278 221 196 132 114 85 65 66 36 11 1 0 0
6 4 6 0 0 0 0 0 0 0 0 0 0 0 0 0 0 0 0 0 2 21 0 0 0 0 0 0 0 0 0 292 262 261 189 174 115 78 44 38 16 20 16 3
3 1 1 1 0 0 0 0 0 0 0 0 0 0 0 0 0 0 0 0 0 0 20 42 8 5 26 23 1 0 1 152 199 351 318 221 141 92 37 21 17 11 12 0
6 4 3 0 0 0 0 0 0 0 0 0 0 0 0 0 0 0 0 0 0 0 0 0 0 0 0 3 0 16 27 69 107 239 180 127 94 30 5 14 10 12 7 2
2 2 8 1 1 0 0 0 0 0 0 0 0 0 0 0 0 0 0 0 0 0 0 0 0 0 0 0 0 0 2 8 45 37 33 79 56 33 13 11 21 7 0 0
0 2 0 1 1 0 0 0 0 1 1 0 0 0 0 0 0 0 0 0 0 0 0 0 0 0 0 0 0 0 0 0 0 1 0 1 2 4 3 10 0 0 0 1
0 0 0 3 0 0 0 0 0 0 1 1 0 0 0 0 0 0 0 0 0 0 0 0 0 0 0 0 0 0 0 0 1 1 1 1 1 1 0 0 1 1 0 0
0 0 0 0 0 0 0 0 0 11 0 11 4 0 0 0 0 0 0 0 0 0 0 0 0 0 0 0 0 0 0 0 0 0 0 1 1 1 1 1 0 0 0 0
0 0 0 0 1 0 0 0 0 10 3 3 0 0 1 0 0 0 0 0 0 0 0 0 0 0 0 0 0 0 0 0 0 0 0 0 0 0 0 0 0 0 0 0
0 0 18 0 1 0 6 4 5 1 0 0 0 0 0 0 0 0 0 0 0 0 0 0 0 0 0 0 0 0 0 0 0 0 0 0 0 0 0 0 0 0 0 0
0 0 0 0 0 1 2 0 0 0 0 0 0 0 0 0 0 0 0 0 0 0 0 0 0 0 0 0 0 0 0 0 0 0 0 0 0 0 0 0 0 0 0 0
0 0 0 0 0 0 0 0 0 0 0 0 0 0 0 0 0 0 0 0 0 0 0 0 0 0 0 0 0 0 0 0 0 0 0 0 0 0 0 0 0 0 0 0
0 0 0 0 0 0 0 0 0 0 0 0 0 0 0 0 0 0 0 0 0 0 0 0 0 0 0 0 0 0 0 0 0 0 0 0 0 0 0 0 0 6 6 4